| time (UTC) | temp F | wind direction | speed knots | gust knots | rain 1hr in | rain 24hr in | rain mn in | humidity % | barometer mb |
| 20260503054559 | 54 | 360 | 0.9 | 3.5 | 0.00 | 0.00 | 0.00 | 48 | 1018.0 |
| 20260503053055 | 52 | 0 | 0.0 | 4.3 | 0.00 | 0.00 | 0.00 | 43 | 1017.9 |
| 20260503051600 | 52 | 0 | 0.0 | 0.0 | 0.00 | 0.00 | 0.00 | 41 | 1017.9 |
| 20260503050059 | 52 | 360 | 2.6 | 5.2 | 0.00 | 0.00 | 0.00 | 46 | 1017.8 |
| 20260503044603 | 51 | 360 | 3.5 | 7.0 | 0.00 | 0.00 | 0.00 | 45 | 1018.0 |
| 20260503043057 | 50 | 360 | 4.3 | 7.0 | 0.00 | 0.00 | 0.00 | 39 | 1018.0 |
| 20260503041607 | 50 | 360 | 0.0 | 5.2 | 0.00 | 0.00 | 0.00 | 43 | 1018.0 |
| 20260503040100 | 52 | 360 | 4.3 | 7.0 | 0.00 | 0.00 | 0.00 | 46 | 1017.9 |
| 20260503034608 | 50 | 360 | 1.7 | 7.0 | 0.00 | 0.00 | 0.00 | 37 | 1017.9 |
| 20260503033100 | 49 | 360 | 4.3 | 7.0 | 0.00 | 0.00 | 0.00 | 40 | 1017.9 |
| 20260503031558 | 51 | 360 | 1.7 | 2.6 | 0.00 | 0.00 | 0.00 | 50 | 1018.1 |
| 20260503030058 | 51 | 0 | 0.0 | 2.6 | 0.00 | 0.00 | 0.00 | 50 | 1018.0 |
| 20260503024600 | 51 | 0 | 0.9 | 2.6 | 0.00 | 0.00 | 0.00 | 49 | 1018.1 |
| 20260503023056 | 51 | 360 | 0.9 | 2.6 | 0.00 | 0.00 | 0.00 | 52 | 1018.0 |
| 20260503021557 | 53 | 0 | 0.0 | 4.3 | 0.00 | 0.00 | 0.00 | 55 | 1018.2 |
| 20260503020056 | 53 | 360 | 1.7 | 4.3 | 0.00 | 0.00 | 0.00 | 57 | 1018.1 |
| 20260503014619 | 54 | 360 | 0.0 | 3.5 | 0.00 | 0.00 | 0.00 | 59 | 1018.1 |
| 20260503013057 | 54 | 0 | 0.0 | 3.5 | 0.00 | 0.00 | 0.00 | 59 | 1018.1 |
| 20260503011558 | 55 | 0 | 1.7 | 4.3 | 0.00 | 0.00 | 0.00 | 59 | 1018.3 |
| 20260503010058 | 55 | 360 | 3.5 | 7.8 | 0.00 | 0.00 | 0.00 | 59 | 1018.5 |
| 20260503004601 | 55 | 360 | 1.7 | 5.2 | 0.00 | 0.00 | 0.00 | 59 | 1018.3 |
| 20260503003058 | 55 | 360 | 1.7 | 5.2 | 0.00 | 0.00 | 0.00 | 59 | 1018.5 |
| 20260503001600 | 55 | 360 | 5.2 | 8.7 | 0.00 | 0.00 | 0.00 | 59 | 1018.8 |
| 20260503000058 | 55 | 360 | 2.6 | 8.7 | 0.00 | 0.00 | 0.00 | 59 | 1018.9 |
| 20260502234557 | 55 | 360 | 4.3 | 7.8 | 0.00 | 0.00 | 0.00 | 59 | 1019.1 |
| 20260502233102 | 56 | 360 | 5.2 | 9.6 | 0.00 | 0.00 | 0.00 | 59 | 1019.2 |
| 20260502231606 | 57 | 360 | 2.6 | 4.3 | 0.00 | 0.00 | 0.00 | 59 | 1019.5 |
| 20260502230058 | 56 | 360 | 3.5 | 7.8 | 0.00 | 0.00 | 0.00 | 59 | 1019.5 |
| 20260502224557 | 56 | 360 | 3.5 | 5.2 | 0.00 | 0.00 | 0.00 | 59 | 1019.6 |
| 20260502223054 | 56 | 360 | 3.5 | 7.0 | 0.00 | 0.00 | 0.00 | 59 | 1019.7 |
| 20260502221600 | 57 | 360 | 6.1 | 8.7 | 0.00 | 0.00 | 0.00 | 59 | 1019.7 |
| 20260502220104 | 57 | 360 | 6.1 | 7.8 | 0.00 | 0.00 | 0.00 | 59 | 1019.6 |
| 20260502214555 | 57 | 360 | 3.5 | 5.2 | 0.00 | 0.00 | 0.00 | 59 | 1019.7 |
| 20260502213057 | 58 | 0 | 0.0 | 3.5 | 0.00 | 0.00 | 0.00 | 59 | 1019.7 |
| 20260502211557 | 58 | 0 | 0.0 | 2.6 | 0.00 | 0.00 | 0.00 | 60 | 1019.9 |
| 20260502210106 | 59 | 0 | 0.0 | 0.9 | 0.00 | 0.00 | 0.00 | 59 | 1019.7 |
| 20260502204600 | 59 | 0 | 0.0 | 3.5 | 0.00 | 0.00 | 0.00 | 59 | 1019.8 |
| 20260502203058 | 58 | 0 | 0.0 | 0.9 | 0.00 | 0.00 | 0.00 | 60 | 1019.8 |
| 20260502201604 | 59 | 0 | 0.0 | 2.6 | 0.00 | 0.00 | 0.00 | 59 | 1019.8 |
| 20260502200105 | 59 | 360 | 1.7 | 3.5 | 0.00 | 0.00 | 0.00 | 58 | 1019.6 |
| 20260502194618 | 60 | 0 | 0.0 | 0.0 | 0.00 | 0.00 | 0.00 | 55 | 1019.5 |
| 20260502193104 | 60 | 0 | 0.0 | 4.3 | 0.00 | 0.00 | 0.00 | 55 | 1019.4 |
| 20260502191600 | 58 | 360 | 4.3 | 7.0 | 0.00 | 0.00 | 0.00 | 58 | 1019.2 |
| 20260502190109 | 59 | 360 | 4.3 | 7.0 | 0.00 | 0.00 | 0.00 | 55 | 1019.1 |
| 20260502184600 | 61 | 360 | 5.2 | 7.8 | 0.00 | 0.00 | 0.00 | 51 | 1019.1 |
| 20260502183056 | 62 | 360 | 2.6 | 7.0 | 0.00 | 0.00 | 0.00 | 51 | 1019.0 |
| 20260502181601 | 63 | 360 | 0.0 | 1.7 | 0.00 | 0.00 | 0.00 | 51 | 1019.1 |
| 20260502180122 | 64 | 360 | 0.0 | 3.5 | 0.00 | 0.00 | 0.00 | 50 | 1018.9 |
| 20260502163059 | 68 | 360 | 3.5 | 9.6 | 0.00 | 0.00 | 0.00 | 53 | 1019.3 |
| 20260502161601 | 69 | 360 | 3.5 | 9.6 | 0.00 | 0.00 | 0.00 | 53 | 1019.6 |
| 20260502151609 | 70 | 360 | 1.7 | 7.8 | 0.00 | 0.00 | 0.00 | 52 | 1019.9 |
| 20260502130113 | 71 | 0 | 0.0 | 4.3 | 0.00 | 0.00 | 0.00 | 55 | 1021.3 |
| 20260502123105 | 70 | 360 | 3.5 | 7.8 | 0.00 | 0.00 | 0.00 | 56 | 1021.5 |
| 20260502121606 | 71 | 360 | 0.9 | 4.3 | 0.00 | 0.00 | 0.00 | 55 | 1021.7 |
| 20260502114557 | 70 | 360 | 4.3 | 15.6 | 0.00 | 0.00 | 0.00 | 55 | 1022.0 |
| 20260502113057 | 69 | 360 | 3.5 | 8.7 | 0.00 | 0.00 | 0.00 | 56 | 1022.3 |
| 20260502111602 | 70 | 360 | 2.6 | 7.8 | 0.00 | 0.00 | 0.00 | 55 | 1022.4 |
| 20260502110100 | 71 | 360 | 2.6 | 7.8 | 0.00 | 0.00 | 0.00 | 55 | 1022.7 |
| 20260502104559 | 68 | 360 | 3.5 | 7.8 | 0.00 | 0.00 | 0.00 | 56 | 1022.7 |
| 20260502103105 | 67 | 360 | 2.6 | 8.7 | 0.00 | 0.00 | 0.00 | 56 | 1022.8 |
| 20260502101620 | 66 | 360 | 3.5 | 7.8 | 0.00 | 0.00 | 0.00 | 56 | 1023.1 |
| 20260502100116 | 66 | 360 | 3.5 | 7.0 | 0.00 | 0.00 | 0.00 | 56 | 1023.2 |
| 20260502090105 | 63 | 360 | 0.9 | 4.3 | 0.00 | 0.00 | 0.00 | 56 | 1023.8 |
| 20260502080108 | 59 | 360 | 0.9 | 3.5 | 0.00 | 0.00 | 0.00 | 56 | 1024.1 |
| 20260502070108 | 56 | 360 | 0.0 | 2.6 | 0.00 | 0.00 | 0.00 | 49 | 1024.7 |
| 20260502064602 | 55 | 360 | 0.9 | 3.5 | 0.00 | 0.00 | 0.00 | 50 | 1024.6 |
| 20260502063105 | 54 | 360 | 2.6 | 5.2 | 0.00 | 0.00 | 0.00 | 54 | 1024.8 |
| 20260502061558 | 54 | 360 | 3.5 | 7.0 | 0.00 | 0.00 | 0.00 | 51 | 1024.6 |
| 20260502060111 | 53 | 360 | 0.9 | 3.5 | 0.00 | 0.00 | 0.00 | 48 | 1024.4 |